Theta_e
278 278 278 278 278 278 278 278 277 277 277 277 277 277 277 277 277 277 277 277 277 277 277 277 277 277 278 278 278 280 281 282 284 285 286 286 289 292 295 296 296 297
278 277 277 277 277 277 277 277 277 277 277 277 276 276 276 277 277 277 277 277 276 276 276 276 276 277 277 277 278 280 280 281 283 284 284 285 286 290 294 296 297 297
277 277 276 276 276 276 276 276 276 276 276 276 276 276 276 276 276 277 276 276 276 276 276 276 276 276 277 278 278 279 279 280 282 283 283 284 285 287 292 295 297 297
276 276 276 275 275 275 275 276 276 276 276 276 276 276 276 276 276 276 276 276 276 275 275 275 275 276 276 277 278 278 279 280 281 281 282 283 284 285 289 293 296 297
276 275 275 275 275 275 275 275 275 275 275 275 276 276 276 276 276 276 276 275 275 275 275 275 275 275 276 276 276 278 279 280 280 281 281 282 283 284 287 290 294 296
275 275 274 274 274 274 274 274 274 274 275 275 275 276 276 276 276 276 276 275 275 274 274 274 275 275 275 275 276 277 278 278 278 279 280 281 282 284 285 288 292 295
274 274 274 273 273 273 273 273 274 274 274 275 275 275 275 275 275 275 275 275 274 274 274 274 274 274 275 275 276 276 276 276 276 277 279 281 282 283 284 286 289 293
273 273 273 272 272 272 272 273 273 273 274 274 274 274 275 275 274 274 274 274 274 273 273 273 273 274 274 275 275 275 275 275 275 277 279 280 281 282 282 284 287 291
272 272 272 272 272 272 272 272 272 272 273 273 273 274 274 274 274 274 273 273 273 273 272 272 273 273 274 274 274 274 274 274 275 276 277 278 279 281 282 283 286 289
272 271 271 271 271 271 271 271 272 272 272 272 273 273 273 273 273 273 272 272 272 272 272 272 272 273 273 273 273 274 273 273 274 275 275 276 278 281 282 283 284 287
271 271 271 271 271 271 271 271 271 271 271 272 272 272 273 272 272 271 271 271 271 271 271 271 272 272 272 273 273 273 273 273 273 274 274 275 277 279 281 281 282 285
270 270 270 270 270 270 270 270 270 270 271 271 271 271 272 271 270 270 270 270 270 270 270 270 271 271 271 272 272 272 272 272 273 273 273 275 276 277 278 280 281 283
270 270 270 270 270 270 270 270 270 270 270 270 270 270 270 269 269 269 268 268 269 269 269 270 270 270 271 271 271 272 272 272 272 272 273 274 275 276 278 280 281 283
270 269 269 269 269 269 269 269 269 269 268 268 268 268 268 268 268 267 267 267 268 268 269 269 269 270 270 271 271 271 271 272 272 272 273 274 275 276 278 280 281 283
269 269 269 269 269 269 269 268 268 267 267 267 267 266 266 266 266 266 267 267 267 268 268 269 269 270 270 270 271 271 271 271 272 272 273 274 275 276 278 280 281 283
269 269 269 269 268 268 267 267 266 266 265 265 265 265 265 265 265 266 266 266 267 268 268 269 269 270 270 271 271 272 272 272 273 273 273 274 276 277 279 280 282 284
268 268 268 268 267 266 266 265 265 264 264 264 264 264 264 264 265 265 266 266 267 268 269 269 269 270 270 271 272 273 274 274 274 275 275 276 277 278 279 281 282 284
268 267 267 266 266 265 264 264 263 263 263 263 263 263 264 264 265 265 266 266 267 268 269 269 270 270 271 272 273 274 274 275 275 275 276 276 277 279 280 282 283 285
267 266 265 265 264 263 263 262 262 262 262 263 263 263 264 264 265 265 266 267 267 268 269 269 270 270 271 272 273 274 275 275 276 276 276 276 277 279 281 282 284 285
265 264 264 263 262 262 262 261 262 262 262 263 263 263 264 265 265 266 266 267 268 268 269 270 270 270 271 272 273 275 276 276 276 276 276 276 276 278 280 282 284 285
264 263 262 262 261 261 261 261 261 262 262 263 263 264 265 265 266 266 267 268 268 269 270 270 270 271 272 273 274 275 276 277 277 277 277 277 277 278 280 282 283 283
262 261 261 261 261 261 261 261 261 262 262 263 264 265 265 265 266 266 267 268 268 269 270 270 271 272 273 274 275 276 277 277 277 277 277 277 278 279 280 281 282 283
261 260 260 260 260 260 261 261 261 262 263 264 264 264 264 265 265 266 266 267 268 269 270 270 271 272 273 275 276 277 277 277 277 277 277 278 279 280 281 282 283 284
260 259 260 260 260 260 261 261 262 262 263 264 264 264 264 264 265 265 266 266 267 268 269 270 271 272 274 275 276 277 278 278 278 278 278 279 280 281 282 283 284 284
259 259 259 260 260 260 261 261 262 263 263 263 263 263 264 264 264 265 265 266 267 268 269 270 272 273 274 276 277 278 279 279 278 278 278 279 280 281 283 284 284 285
259 259 259 260 260 261 261 262 262 263 263 263 263 263 263 263 264 264 265 266 267 268 269 270 271 272 274 275 277 278 279 280 280 279 279 279 280 281 283 284 285 286
Wind_Speed
23 23 23 25 25 26 28 29 30 31 33 34 35 36 37 37 36 35 35 35 35 35 35 35 34 34 35 35 34 34 32 32 35 35 35 37 38 37 36 38 36 33
23 23 23 25 26 27 28 30 31 32 34 34 34 35 36 36 35 34 34 34 35 35 34 35 35 35 34 35 35 34 33 35 37 35 35 37 38 37 35 37 36 35
23 24 24 26 27 29 30 30 31 31 33 35 35 35 36 35 34 33 33 34 35 35 35 35 35 34 34 34 34 34 36 38 38 35 36 37 36 36 34 33 35 34
25 25 26 27 28 29 30 31 31 31 32 34 35 35 35 34 33 34 34 34 35 36 36 35 34 33 33 33 33 36 37 38 36 34 36 37 36 35 34 31 32 32
26 26 27 28 28 29 30 31 32 32 32 33 34 34 33 33 34 35 36 36 35 36 36 35 34 33 34 34 34 34 32 30 29 29 31 35 35 34 33 32 30 31
27 28 28 28 29 29 30 31 32 33 33 33 33 33 32 33 34 36 37 36 35 35 35 34 34 34 33 33 34 32 28 27 28 28 30 34 35 33 31 31 30 30
29 30 29 29 29 29 30 31 32 31 31 32 33 33 33 33 34 35 36 36 35 34 34 33 33 34 33 32 33 33 30 28 30 32 33 32 31 32 32 31 30 31
29 30 30 30 31 31 31 31 31 31 31 32 32 33 32 32 33 34 34 34 34 33 33 33 33 33 33 32 33 34 32 30 31 32 31 29 27 29 32 31 29 30
30 30 30 31 31 31 31 31 32 32 31 31 31 32 32 31 31 32 33 33 33 32 31 32 33 33 32 32 33 34 34 32 32 31 30 31 30 29 31 31 29 30
30 31 31 31 31 31 32 33 33 33 31 29 30 31 31 28 28 30 32 32 31 31 30 31 32 32 32 33 33 34 34 33 33 32 31 33 33 31 29 29 28 29
30 31 31 31 32 33 33 34 34 32 30 28 29 30 29 28 28 29 29 30 29 29 30 30 30 30 31 33 33 33 34 34 33 33 33 33 33 32 30 29 29 31
30 30 31 33 33 34 34 34 33 31 30 29 29 30 28 28 29 29 28 29 29 29 29 30 30 30 32 33 34 34 34 34 34 34 34 34 33 34 33 32 33 34
29 30 32 33 33 34 34 34 32 30 30 30 29 28 28 30 30 30 29 29 29 29 29 30 30 31 32 33 34 34 33 34 34 34 34 34 34 34 33 33 35 34
30 31 32 32 33 33 33 31 29 30 31 30 28 27 28 29 29 30 30 29 29 30 30 30 30 30 31 32 32 33 33 34 33 33 34 33 34 35 32 32 34 34
30 32 32 32 33 32 30 30 30 31 31 30 28 27 28 29 29 30 31 31 31 31 31 30 29 30 30 30 31 31 32 32 32 32 33 33 34 34 32 32 33 33
30 31 32 32 32 31 32 33 33 33 31 30 29 30 30 31 31 31 31 32 32 31 31 30 28 28 29 30 31 32 31 31 31 30 31 32 32 32 31 31 32 31
30 30 31 32 32 32 33 33 33 33 32 31 32 32 32 32 31 31 31 31 31 30 30 29 29 29 30 31 32 33 33 33 32 31 31 32 32 32 31 31 31 30
29 30 31 32 32 32 32 33 33 33 32 33 34 33 34 33 31 30 30 30 30 30 29 29 29 30 31 31 32 32 33 34 34 32 31 32 32 32 30 30 30 29
28 30 31 31 30 30 32 33 33 33 33 33 34 34 34 32 31 31 32 31 30 29 29 29 30 30 31 32 32 32 33 34 33 31 31 32 33 33 31 29 28 26
29 29 29 29 30 31 32 33 32 33 33 33 34 35 34 32 33 35 33 30 28 28 28 30 31 31 32 33 33 33 32 32 30 29 31 32 34 34 32 29 27 26
28 27 27 29 31 32 33 33 32 32 33 34 34 34 31 30 31 32 29 27 26 27 28 30 32 32 32 33 34 34 34 32 29 28 29 31 33 34 33 30 28 28
25 27 29 31 32 33 33 33 32 33 34 34 33 31 28 29 29 28 28 28 28 28 29 31 33 33 32 33 35 35 33 30 27 25 27 30 31 32 32 31 31 31
23 27 31 32 32 33 33 33 33 34 33 31 31 31 30 30 30 29 28 28 28 29 30 32 34 35 34 34 35 34 31 28 25 23 25 27 29 29 30 30 31 31
26 28 31 32 32 32 34 34 34 33 31 30 31 32 32 31 30 30 29 28 28 31 32 32 35 37 36 35 35 33 29 26 24 22 23 24 26 27 28 28 29 31
28 29 30 31 32 33 33 34 34 32 31 32 32 32 32 31 30 31 31 29 29 30 31 31 33 36 35 34 34 32 29 26 24 22 22 23 24 25 27 29 31 32
29 29 30 31 32 33 33 32 32 32 32 33 32 31 31 32 31 30 31 30 29 29 30 30 31 32 33 33 33 31 29 26 23 22 22 23 24 24 25 26 27 27
Wind_Direction
314 313 311 309 307 305 304 302 300 298 296 296 295 296 298 299 301 303 301 299 296 292 289 288 286 285 284 284 284 282 282 285 285 284 286 287 288 283 266 249 240 237
314 314 312 309 307 305 303 301 298 296 294 293 293 294 296 298 298 299 299 297 295 290 287 286 285 283 283 281 280 280 283 283 281 283 286 286 289 288 271 250 241 237
316 315 313 310 308 306 304 301 297 294 293 293 293 294 295 296 296 296 296 295 293 290 287 285 284 282 280 279 279 280 281 280 280 282 285 285 287 290 281 257 243 239
316 315 313 311 309 307 305 301 297 295 294 292 293 294 295 295 294 293 294 293 291 289 287 284 281 280 279 279 280 280 278 277 278 280 282 283 284 288 288 271 250 242
316 315 314 312 310 308 305 301 299 297 295 293 293 294 294 294 292 291 291 291 290 289 287 283 280 278 278 278 278 278 277 277 280 281 280 281 283 284 287 281 262 247
318 317 316 313 310 309 306 302 301 298 296 295 294 294 294 293 291 288 288 288 288 287 284 281 279 277 276 276 275 275 280 281 282 285 283 281 281 281 284 285 274 257
320 318 316 314 311 309 306 304 302 299 297 297 295 293 292 292 290 288 287 286 285 284 282 279 278 276 275 275 273 274 279 283 283 282 280 277 278 279 281 284 281 268
318 317 316 315 313 312 309 306 304 301 299 298 295 292 291 290 289 288 287 285 282 281 280 279 278 275 273 273 273 273 276 280 280 277 276 278 279 277 277 279 281 274
317 317 317 316 315 312 309 307 306 304 301 296 292 292 291 288 288 288 287 284 281 278 279 278 276 274 272 271 271 271 273 275 275 273 277 281 280 276 274 275 277 276
318 319 319 317 315 312 309 308 307 305 301 295 292 291 289 287 288 288 286 285 280 278 279 278 274 273 272 269 269 269 269 271 272 272 274 276 274 274 274 273 274 276
321 321 319 317 314 311 309 309 307 304 300 296 293 291 288 288 289 288 286 284 281 278 279 278 275 273 272 269 268 268 267 269 269 270 271 270 270 271 272 273 272 274
321 320 319 316 314 312 310 309 306 302 299 297 294 291 289 289 289 287 285 284 281 279 279 278 275 273 271 269 268 267 267 267 267 268 269 267 267 268 268 270 269 268
320 319 317 315 313 311 310 308 304 301 300 298 294 291 290 289 288 287 285 283 281 280 278 277 275 272 270 268 267 266 266 265 266 266 266 265 266 266 264 264 264 263
320 318 315 313 312 310 309 306 304 303 302 299 295 292 291 290 289 288 286 284 281 279 277 275 273 271 269 266 265 265 264 264 265 265 265 265 265 265 262 261 263 261
319 317 315 313 311 310 308 306 305 305 304 301 297 294 293 292 291 289 288 286 283 279 275 273 272 269 267 264 263 263 262 262 263 262 264 265 265 265 263 261 262 261
318 316 314 313 311 310 309 308 307 307 305 302 299 297 295 294 293 290 288 285 283 280 275 272 270 267 266 264 262 263 262 262 262 260 261 263 264 265 264 262 262 261
318 315 313 312 311 311 311 309 309 308 305 303 302 300 298 297 295 291 288 285 283 281 277 273 269 265 267 268 266 265 265 264 264 263 262 261 261 262 262 263 263 260
317 315 314 314 314 313 312 312 311 309 307 305 304 303 302 299 295 291 289 287 284 281 277 275 272 269 270 272 270 268 267 266 266 266 266 264 262 261 259 259 260 260
319 318 316 316 316 315 314 313 312 310 309 308 306 306 304 300 297 296 293 289 285 281 280 279 277 274 274 274 274 271 270 268 266 266 266 264 263 262 260 258 259 261
322 321 319 317 317 317 316 315 313 312 311 311 309 308 305 300 299 298 293 286 282 279 279 281 281 279 278 276 275 274 273 271 267 265 264 263 262 260 259 259 259 260
324 323 321 319 319 319 317 316 315 314 314 313 312 309 305 303 303 301 297 294 291 286 282 281 281 282 282 280 278 278 277 274 268 265 263 262 260 258 258 260 261 261
324 323 322 321 321 320 318 317 317 317 316 316 315 312 312 312 310 308 307 305 301 296 292 287 285 286 287 286 284 282 280 275 270 267 265 262 260 257 256 258 258 258
324 323 322 322 321 320 318 318 318 318 318 320 319 318 318 316 314 312 311 308 304 300 299 295 290 290 292 292 291 287 281 273 267 266 265 262 260 258 256 256 254 252
325 324 322 321 320 320 318 318 319 319 319 321 321 318 317 317 316 315 312 310 305 299 299 298 295 295 297 298 296 293 286 275 266 263 263 263 262 262 261 259 258 256
326 325 323 322 320 319 318 319 320 320 320 321 320 319 318 319 318 315 312 310 305 300 301 303 301 300 302 303 301 298 291 279 266 259 262 263 262 262 263 261 260 259
328 328 326 324 321 320 320 320 321 322 322 323 322 321 321 321 319 316 314 313 310 306 304 303 303 304 307 310 310 308 303 293 275 257 254 260 261 259 261 261 258 257